Find Starlink 6229

NORAD ID: 57093 Int'l Des: 2023-088 Owner: SPXS Country: US Constellation: starlink operational
LEOCIRCULAR

リアルタイム位置

3D地球を読み込み中...

Starlink 6229について

説明を読み込み中...

次回通過

Passes for default location (London). Set your location on the main map for personalized predictions.

高度履歴

Loading altitude history...

軌道要素

1 57093U 23088AX 26106.80862297 .00000176 00000-0 16224-4 0 9995
2 57093 43.0024 240.5391 0001170 273.6641 86.4076 15.26742279156335
Epoch: Apr 16, 2026 • Age: 21 hours

現在のステータス

高度 485.3 km
速度 7.62 km/s
衛星直下点 1.88°N, 41.14°W
打ち上げ日 Jun 22, 2023
運用期間 2.8 years
タイプ internet

技術仕様

分類 Payload
質量 305.00 kg
乾燥質量 290.00 kg
総質量 305.00 kg
長さ 0.20 m
直径 2.80 m
スパン 9.00 m
形状 Box + pan
製造者 SPXS
バスタイプ Starlink
フェーズステータス In Orbit
所有者/国 SPXS/US

Most Searched